Location: ???????
(54.9996°N, 37.9529°E)
Time: 02:10:09
(UTC+00:00)

BlueWalker 3 - Visible Passes

Search period start: 21 June 2024 00:00
Search period end: 01 July 2024 00:00
Orbit: 480 x 494 km, 53.2° (Epoch: 20 June)

Date Brightness Start Highest point End Pass type
(mag) Time Alt. Az. Time Alt. Az. Time Alt. Az.
21 Jun 1.8 20:37:38 10° W 20:41:22 68° S 20:45:06 10° E visible
21 Jun 2.0 22:15:43 10° W 22:19:21 49° SSW 22:22:58 10° ESE visible
22 Jun 1.8 20:11:57 10° W 20:15:40 67° S 20:19:24 10° E visible
22 Jun 2.0 21:50:01 10° W 21:53:39 50° SSW 21:57:17 10° ESE visible
22 Jun 3.2 23:28:33 10° W 23:31:15 19° SW 23:33:56 10° S visible
23 Jun 1.8 19:46:13 10° WSW 19:49:58 67° S 19:53:41 10° E visible
23 Jun 2.0 21:24:18 10° W 21:27:57 51° SSW 21:31:36 10° ESE visible
23 Jun 3.2 23:02:48 10° W 23:05:34 20° SW 23:08:20 10° SSE visible
24 Jun 1.8 19:20:31 10° WSW 19:24:15 66° S 19:27:58 10° E visible
24 Jun 1.9 20:58:34 10° W 21:02:14 53° SSW 21:05:53 10° ESE visible
24 Jun 3.2 22:37:01 10° W 22:39:52 21° SW 22:42:11 13° S visible
25 Jun 1.9 20:32:50 10° W 20:36:31 54° SSW 20:40:11 10° ESE visible
25 Jun 3.1 22:11:16 10° W 22:14:11 22° SW 22:15:43 17° S visible
26 Jun 1.9 20:07:07 10° W 20:10:47 55° SSW 20:14:27 10° ESE visible
26 Jun 3.1 21:45:29 10° W 21:48:28 23° SW 21:49:48 19° S visible
27 Jun 2.0 19:41:22 10° W 19:45:03 57° SSW 19:48:44 10° ESE visible
27 Jun 3.1 21:19:43 10° W 21:22:45 23° SSW 21:24:08 19° S visible
28 Jun 2.0 19:15:37 10° W 19:19:19 58° SSW 19:22:59 10° ESE visible
28 Jun 3.1 20:53:56 10° W 20:57:01 24° SSW 20:58:39 18° S visible
29 Jun 3.0 20:28:09 10° W 20:31:18 25° SSW 20:33:16 17° SSE visible
30 Jun 3.0 20:02:21 10° W 20:05:32 27° SSW 20:07:56 14° SSE visible
